KAI2 KBFI-KVNY

Flight info

Callsign KAI2
Flight time 1h 55m
Altitude 39000
Route TAOMA J5 SUMMA Q9 SUNBE FRA REBRG IVINS2
Aircraft B737/M-SDE2E3FGHIRWXY/LB1

Departure

Time 2026-05-07 00:22
Airport King County International Airport - Boeing Field (KBFI)

Arrival

Time 2026-05-07 02:17
Airport Van Nuys Airport (KVNY)
Time Latitude Longitude Altitude Speed Heading
2026-05-06 22:24 47.53703 -122.31318 27 ft 0 kts 271°
2026-05-07 00:15 47.53703 -122.31290 27 ft 4 kts 268°
2026-05-07 00:15 47.53704 -122.31270 27 ft 0 kts 268°
2026-05-07 00:16 47.53704 -122.31264 27 ft 2 kts 268°
2026-05-07 00:17 47.53704 -122.31240 27 ft 2 kts 268°
2026-05-07 00:17 47.53705 -122.31216 27 ft 2 kts 275°
2026-05-07 00:17 47.53705 -122.31211 27 ft 0 kts 281°
2026-05-07 00:18 47.53706 -122.31215 27 ft 3 kts 287°
2026-05-07 00:18 47.53749 -122.31274 27 ft 14 kts 328°
2026-05-07 00:19 47.53845 -122.31355 27 ft 16 kts 330°
2026-05-07 00:19 47.53923 -122.31381 27 ft 11 kts 29°
2026-05-07 00:19 47.53963 -122.31298 26 ft 10 kts 62°
2026-05-07 00:19 47.53983 -122.31243 31 ft 5 kts 63°
2026-05-07 00:20 47.53985 -122.31236 29 ft 0 kts 63°
2026-05-07 00:20 47.53990 -122.31223 28 ft 6 kts 61°
2026-05-07 00:20 47.54017 -122.31117 26 ft 7 kts 111°
2026-05-07 00:21 47.53977 -122.31071 27 ft 12 kts 150°
2026-05-07 00:21 47.53661 -122.30804 26 ft 97 kts 150°
2026-05-07 00:21 47.53151 -122.30374 28 ft 149 kts 150°
2026-05-07 00:21 47.52107 -122.29478 398 ft 185 kts 149°
2026-05-07 00:22 47.50945 -122.28467 1267 ft 196 kts 152°
2026-05-07 00:22 47.49847 -122.27454 1754 ft 190 kts 152°
2026-05-07 00:22 47.48648 -122.26391 2383 ft 210 kts 153°
2026-05-07 00:22 47.47314 -122.25283 3082 ft 228 kts 153°
2026-05-07 00:23 47.45907 -122.24145 3970 ft 237 kts 154°
2026-05-07 00:23 47.44406 -122.22989 4807 ft 250 kts 155°
2026-05-07 00:23 47.42825 -122.21761 5653 ft 263 kts 154°
2026-05-07 00:23 47.41152 -122.20526 6484 ft 276 kts 162°
2026-05-07 00:24 47.39242 -122.19898 7282 ft 286 kts 178°
2026-05-07 00:24 47.37315 -122.19631 8641 ft 275 kts 179°
2026-05-07 00:24 47.35429 -122.19366 9992 ft 272 kts 179°
2026-05-07 00:24 47.33544 -122.19084 10953 ft 280 kts 180°
2026-05-07 00:25 47.31521 -122.18802 11509 ft 305 kts 180°
2026-05-07 00:25 47.29339 -122.18416 12193 ft 322 kts 178°
2026-05-07 00:25 47.27131 -122.17948 13445 ft 318 kts 178°
2026-05-07 00:25 47.24965 -122.17465 14773 ft 312 kts 178°
2026-05-07 00:26 47.22810 -122.16977 15768 ft 318 kts 179°
2026-05-07 00:26 47.20556 -122.16475 16437 ft 336 kts 179°
2026-05-07 00:26 47.18203 -122.15948 17248 ft 346 kts 178°
2026-05-07 00:26 47.15819 -122.15408 18352 ft 347 kts 179°
2026-05-07 00:27 47.13426 -122.14901 19330 ft 349 kts 179°
2026-05-07 00:27 47.10995 -122.14411 20143 ft 356 kts 179°
2026-05-07 00:27 47.08512 -122.13917 20946 ft 363 kts 179°
2026-05-07 00:27 47.05987 -122.13410 21845 ft 368 kts 179°
2026-05-07 00:28 47.03429 -122.12895 22697 ft 374 kts 178°
2026-05-07 00:28 47.00830 -122.12369 23525 ft 381 kts 179°
2026-05-07 00:28 46.98198 -122.11837 24262 ft 387 kts 179°
2026-05-07 00:28 46.95513 -122.11295 25004 ft 391 kts 179°
2026-05-07 00:29 46.92804 -122.10747 25733 ft 396 kts 178°
2026-05-07 00:29 46.90065 -122.09971 26419 ft 405 kts 172°
2026-05-07 00:30 46.81743 -122.06627 28489 ft 421 kts 169°
2026-05-07 00:30 46.78905 -122.05472 29159 ft 426 kts 169°
2026-05-07 00:30 46.76098 -122.04357 29799 ft 430 kts 169°
2026-05-07 00:30 46.73125 -122.03196 30390 ft 435 kts 169°
2026-05-07 00:31 46.70189 -122.02056 30921 ft 439 kts 169°
2026-05-07 00:31 46.67231 -122.00907 31457 ft 442 kts 169°
2026-05-07 00:31 46.64248 -121.99743 31938 ft 445 kts 169°
2026-05-07 00:31 46.61232 -121.98621 32421 ft 447 kts 173°
2026-05-07 00:32 46.58166 -121.97804 32833 ft 450 kts 175°
2026-05-07 00:32 46.55061 -121.97065 33266 ft 453 kts 175°
2026-05-07 00:32 46.51942 -121.96339 33719 ft 456 kts 175°
2026-05-07 00:32 46.48798 -121.95607 34124 ft 459 kts 175°
2026-05-07 00:33 46.45636 -121.94865 34467 ft 462 kts 175°
2026-05-07 00:33 46.42451 -121.94109 34814 ft 465 kts 175°
2026-05-07 00:33 46.39246 -121.93342 35147 ft 468 kts 174°
2026-05-07 00:33 46.36027 -121.92568 35489 ft 470 kts 174°
2026-05-07 00:34 46.32795 -121.91801 35780 ft 472 kts 175°
2026-05-07 00:34 46.29536 -121.91064 35983 ft 476 kts 174°
2026-05-07 00:34 46.26258 -121.90264 36322 ft 478 kts 174°
2026-05-07 00:34 46.22977 -121.89451 36668 ft 478 kts 174°
2026-05-07 00:35 46.19751 -121.88667 37110 ft 475 kts 174°
2026-05-07 00:35 46.16495 -121.87898 37532 ft 473 kts 174°
2026-05-07 00:35 46.13256 -121.87092 37926 ft 473 kts 174°
2026-05-07 00:35 46.10005 -121.86302 38250 ft 474 kts 174°
2026-05-07 00:36 46.06759 -121.85526 38592 ft 473 kts 174°
2026-05-07 00:36 46.03511 -121.84759 38922 ft 472 kts 174°
2026-05-07 00:36 46.00264 -121.83990 39153 ft 475 kts 174°
2026-05-07 00:36 45.96980 -121.83214 39135 ft 481 kts 174°
2026-05-07 00:37 45.90395 -121.81651 39108 ft 475 kts 174°
2026-05-07 00:37 45.83921 -121.80114 39119 ft 471 kts 174°
2026-05-07 00:38 45.77441 -121.78583 39138 ft 473 kts 174°
2026-05-07 00:38 45.70930 -121.77049 39111 ft 474 kts 174°
2026-05-07 00:39 45.64419 -121.75519 39123 ft 474 kts 174°
2026-05-07 00:39 45.57906 -121.73986 39142 ft 475 kts 174°
2026-05-07 00:40 45.51387 -121.72486 39128 ft 474 kts 174°
2026-05-07 00:40 45.44860 -121.70954 39125 ft 476 kts 174°
2026-05-07 00:41 45.38331 -121.69432 39127 ft 476 kts 174°
2026-05-07 00:41 45.31716 -121.67899 39135 ft 488 kts 174°
2026-05-07 00:42 45.24928 -121.66318 39124 ft 499 kts 174°
2026-05-07 00:42 45.18031 -121.64726 39115 ft 503 kts 173°
2026-05-07 00:43 45.11110 -121.63121 39097 ft 505 kts 173°
2026-05-07 00:43 45.04223 -121.61533 39114 ft 505 kts 173°
2026-05-07 00:44 44.97241 -121.59929 39099 ft 504 kts 173°
2026-05-07 00:44 44.90367 -121.58356 39107 ft 504 kts 173°
2026-05-07 00:45 44.83448 -121.56775 39095 ft 503 kts 173°
2026-05-07 00:45 44.76546 -121.55202 39085 ft 502 kts 172°
2026-05-07 00:46 44.69650 -121.53634 39091 ft 501 kts 172°
2026-05-07 00:46 44.62770 -121.52072 39090 ft 501 kts 172°
2026-05-07 00:47 44.55891 -121.50515 39078 ft 500 kts 172°
2026-05-07 00:47 44.49013 -121.48965 39080 ft 500 kts 172°
2026-05-07 00:48 44.42137 -121.47417 39070 ft 501 kts 172°
2026-05-07 00:48 44.35265 -121.45873 39061 ft 500 kts 172°
2026-05-07 00:49 44.28399 -121.44333 39085 ft 499 kts 172°
2026-05-07 00:49 44.21542 -121.42801 39089 ft 499 kts 172°
2026-05-07 00:50 44.14681 -121.41270 39101 ft 499 kts 172°
2026-05-07 00:50 44.07832 -121.39746 39105 ft 499 kts 172°
2026-05-07 00:51 44.01028 -121.38235 39100 ft 498 kts 172°
2026-05-07 00:51 43.94132 -121.36707 39081 ft 498 kts 172°
2026-05-07 00:52 43.87338 -121.35205 39085 ft 497 kts 172°
2026-05-07 00:52 43.80512 -121.33697 39078 ft 496 kts 172°
2026-05-07 00:53 43.73699 -121.32185 39075 ft 496 kts 172°
2026-05-07 00:53 43.66881 -121.30674 39079 ft 496 kts 172°
2026-05-07 00:54 43.60067 -121.29169 39077 ft 496 kts 172°
2026-05-07 00:54 43.53256 -121.27668 39070 ft 496 kts 172°
2026-05-07 00:55 43.46461 -121.26174 39065 ft 494 kts 172°
2026-05-07 00:55 43.39674 -121.24685 39068 ft 494 kts 172°
2026-05-07 00:56 43.32892 -121.23201 39078 ft 493 kts 172°
2026-05-07 00:56 43.26116 -121.21721 39071 ft 493 kts 172°
2026-05-07 00:57 43.19335 -121.20244 39062 ft 493 kts 172°
2026-05-07 00:57 43.12558 -121.18770 39076 ft 493 kts 172°
2026-05-07 00:58 43.05784 -121.17301 39061 ft 493 kts 172°
2026-05-07 00:58 42.99012 -121.15835 39071 ft 493 kts 172°
2026-05-07 00:59 42.88845 -121.13640 39065 ft 493 kts 172°
2026-05-07 01:00 42.82076 -121.12183 39077 ft 493 kts 172°
2026-05-07 01:00 42.75303 -121.10726 39081 ft 493 kts 172°
2026-05-07 01:01 42.68520 -121.09272 39079 ft 493 kts 172°
2026-05-07 01:01 42.61752 -121.07824 39084 ft 492 kts 172°
2026-05-07 01:02 42.54985 -121.06379 39077 ft 492 kts 172°
2026-05-07 01:02 42.48267 -121.04947 39087 ft 491 kts 173°
2026-05-07 01:03 42.41466 -121.03501 39078 ft 491 kts 173°
2026-05-07 01:03 42.34719 -121.02070 39082 ft 491 kts 173°
2026-05-07 01:04 42.27964 -121.00640 39084 ft 491 kts 173°
2026-05-07 01:04 42.21216 -120.99215 39079 ft 491 kts 173°
2026-05-07 01:05 42.14472 -120.97793 39079 ft 490 kts 173°
2026-05-07 01:05 42.07735 -120.96376 39082 ft 489 kts 173°
2026-05-07 01:06 42.02150 -120.95204 39070 ft 489 kts 173°
2026-05-07 01:06 41.94289 -120.93557 39082 ft 489 kts 173°
2026-05-07 01:07 41.87610 -120.92161 39070 ft 489 kts 173°
2026-05-07 01:07 41.80885 -120.90760 39053 ft 488 kts 173°
2026-05-07 01:08 41.74174 -120.89362 39055 ft 488 kts 174°
2026-05-07 01:08 41.68551 -120.88194 39054 ft 488 kts 174°
2026-05-07 01:09 41.61844 -120.86804 39050 ft 488 kts 174°
2026-05-07 01:09 41.55134 -120.85416 39054 ft 488 kts 174°
2026-05-07 01:10 41.48421 -120.84030 39108 ft 488 kts 174°
2026-05-07 01:10 41.41756 -120.82658 39102 ft 488 kts 175°
2026-05-07 01:11 41.35056 -120.81280 39101 ft 488 kts 174°
2026-05-07 01:11 41.28340 -120.79902 39093 ft 488 kts 175°
2026-05-07 01:12 41.21625 -120.78528 39080 ft 488 kts 175°
2026-05-07 01:12 41.14907 -120.77155 39075 ft 489 kts 175°
2026-05-07 01:13 41.08184 -120.75784 39083 ft 489 kts 175°
2026-05-07 01:13 41.01466 -120.74418 39081 ft 488 kts 175°
2026-05-07 01:14 40.94795 -120.72592 39091 ft 491 kts 170°
2026-05-07 01:14 40.88147 -120.70470 39090 ft 492 kts 169°
2026-05-07 01:15 40.81493 -120.68348 39085 ft 492 kts 169°
2026-05-07 01:15 40.74839 -120.66268 39081 ft 492 kts 170°
2026-05-07 01:16 40.68170 -120.64209 39079 ft 492 kts 170°
2026-05-07 01:16 40.61501 -120.62158 39101 ft 492 kts 170°
2026-05-07 01:17 40.54833 -120.60109 39127 ft 491 kts 170°
2026-05-07 01:17 40.48184 -120.58069 39146 ft 492 kts 170°
2026-05-07 01:18 40.41520 -120.56029 39152 ft 492 kts 170°
2026-05-07 01:18 40.34857 -120.53992 39149 ft 491 kts 169°
2026-05-07 01:19 40.28201 -120.51962 39141 ft 492 kts 169°
2026-05-07 01:19 40.21536 -120.49930 39111 ft 492 kts 169°
2026-05-07 01:20 40.14867 -120.47907 39078 ft 491 kts 169°
2026-05-07 01:20 40.08218 -120.45892 39063 ft 491 kts 169°
2026-05-07 01:21 40.01613 -120.43894 39054 ft 491 kts 169°
2026-05-07 01:21 39.94956 -120.41884 39050 ft 491 kts 169°
2026-05-07 01:22 39.88307 -120.39881 39074 ft 490 kts 169°
2026-05-07 01:22 39.81655 -120.37880 39058 ft 491 kts 169°
2026-05-07 01:23 39.75008 -120.35886 39068 ft 491 kts 169°
2026-05-07 01:23 39.68353 -120.33892 39074 ft 491 kts 169°
2026-05-07 01:24 39.61695 -120.31902 39072 ft 491 kts 169°
2026-05-07 01:24 39.55042 -120.29917 39083 ft 491 kts 169°
2026-05-07 01:25 39.48386 -120.27935 39077 ft 491 kts 169°
2026-05-07 01:25 39.41729 -120.25957 39086 ft 491 kts 169°
2026-05-07 01:26 39.35082 -120.23984 39257 ft 490 kts 169°
2026-05-07 01:26 39.28435 -120.22017 39251 ft 490 kts 169°
2026-05-07 01:27 39.21802 -120.20057 39228 ft 489 kts 168°
2026-05-07 01:27 39.15162 -120.18100 39212 ft 489 kts 168°
2026-05-07 01:28 39.08535 -120.16150 39183 ft 489 kts 168°
2026-05-07 01:28 39.01900 -120.14201 39175 ft 488 kts 168°
2026-05-07 01:29 38.95276 -120.12259 39167 ft 489 kts 168°
2026-05-07 01:29 38.88641 -120.10318 39166 ft 489 kts 168°
2026-05-07 01:30 38.82011 -120.08381 39168 ft 488 kts 168°
2026-05-07 01:30 38.75386 -120.06450 39168 ft 489 kts 168°
2026-05-07 01:31 38.68755 -120.04521 39152 ft 489 kts 168°
2026-05-07 01:31 38.62115 -120.02593 39151 ft 489 kts 168°
2026-05-07 01:32 38.55474 -120.00668 39157 ft 489 kts 168°
2026-05-07 01:32 38.48841 -119.98749 39135 ft 489 kts 168°
2026-05-07 01:33 38.42212 -119.96835 39128 ft 489 kts 168°
2026-05-07 01:33 38.35585 -119.94925 39119 ft 488 kts 168°
2026-05-07 01:34 38.28951 -119.93000 39107 ft 489 kts 168°
2026-05-07 01:34 38.22310 -119.91102 39104 ft 489 kts 168°
2026-05-07 01:35 38.15682 -119.89210 39091 ft 488 kts 168°
2026-05-07 01:35 38.09059 -119.87317 39093 ft 488 kts 168°
2026-05-07 01:36 38.02446 -119.85437 39096 ft 487 kts 168°
2026-05-07 01:36 37.95877 -119.83558 39102 ft 487 kts 167°
2026-05-07 01:37 37.89213 -119.81664 39116 ft 488 kts 167°
2026-05-07 01:37 37.82624 -119.79791 39107 ft 489 kts 167°
2026-05-07 01:38 37.75991 -119.77909 39108 ft 488 kts 167°
2026-05-07 01:38 37.69362 -119.76035 39108 ft 488 kts 167°
2026-05-07 01:39 37.62739 -119.74165 39107 ft 488 kts 167°
2026-05-07 01:39 37.56110 -119.72296 39104 ft 488 kts 167°
2026-05-07 01:40 37.49492 -119.70433 39108 ft 487 kts 167°
2026-05-07 01:40 37.42869 -119.68573 39107 ft 488 kts 167°
2026-05-07 01:41 37.36246 -119.66716 39098 ft 487 kts 167°
2026-05-07 01:41 37.29636 -119.64866 39099 ft 487 kts 167°
2026-05-07 01:42 37.23019 -119.63017 39089 ft 487 kts 167°
2026-05-07 01:42 37.16414 -119.61175 39095 ft 487 kts 167°
2026-05-07 01:43 37.09769 -119.59518 39083 ft 487 kts 174°
2026-05-07 01:43 37.02990 -119.59455 39084 ft 487 kts 181°
2026-05-07 01:44 36.96217 -119.59687 39082 ft 487 kts 181°
2026-05-07 01:44 36.89438 -119.59874 39086 ft 487 kts 180°
2026-05-07 01:45 36.82650 -119.60009 39094 ft 487 kts 180°
2026-05-07 01:45 36.75871 -119.60126 39091 ft 487 kts 180°
2026-05-07 01:46 36.69093 -119.60243 39091 ft 487 kts 180°
2026-05-07 01:46 36.62319 -119.60363 38815 ft 485 kts 180°
2026-05-07 01:46 36.58958 -119.60423 38552 ft 481 kts 180°
2026-05-07 01:47 36.55617 -119.60483 38276 ft 482 kts 180°
2026-05-07 01:47 36.52250 -119.60543 38014 ft 485 kts 180°
2026-05-07 01:47 36.48866 -119.60603 37749 ft 486 kts 180°
2026-05-07 01:47 36.45478 -119.60663 37492 ft 487 kts 180°
2026-05-07 01:48 36.42090 -119.60723 37232 ft 488 kts 180°
2026-05-07 01:48 36.38698 -119.60783 36975 ft 488 kts 180°
2026-05-07 01:48 36.35301 -119.60844 36718 ft 487 kts 180°
2026-05-07 01:48 36.31911 -119.60904 36465 ft 487 kts 180°
2026-05-07 01:49 36.28564 -119.60963 36215 ft 487 kts 180°
2026-05-07 01:49 36.25136 -119.61024 35968 ft 487 kts 180°
2026-05-07 01:49 36.21751 -119.61083 35721 ft 487 kts 180°
2026-05-07 01:49 36.18364 -119.61143 35480 ft 486 kts 180°
2026-05-07 01:50 36.14983 -119.61203 35237 ft 487 kts 180°
2026-05-07 01:50 36.11636 -119.61262 34867 ft 485 kts 180°
2026-05-07 01:50 36.08241 -119.61322 33792 ft 490 kts 180°
2026-05-07 01:50 36.04827 -119.61381 32724 ft 491 kts 180°
2026-05-07 01:51 36.01404 -119.61442 31718 ft 492 kts 180°
2026-05-07 01:51 35.98009 -119.61513 31023 ft 485 kts 182°
2026-05-07 01:51 35.94723 -119.61920 30947 ft 466 kts 188°
2026-05-07 01:51 35.91522 -119.62580 30813 ft 472 kts 190°
2026-05-07 01:52 35.88238 -119.63348 30697 ft 485 kts 191°
2026-05-07 01:52 35.84904 -119.64120 30562 ft 490 kts 190°
2026-05-07 01:52 35.81555 -119.64855 30417 ft 486 kts 189°
2026-05-07 01:52 35.78241 -119.65545 30281 ft 482 kts 189°
2026-05-07 01:53 35.74939 -119.66211 30142 ft 479 kts 189°
2026-05-07 01:53 35.71655 -119.66869 29999 ft 477 kts 189°
2026-05-07 01:53 35.68384 -119.67526 29863 ft 476 kts 189°
2026-05-07 01:53 35.65101 -119.68035 29705 ft 475 kts 180°
2026-05-07 01:54 35.61816 -119.67690 29628 ft 473 kts 171°
2026-05-07 01:54 35.56378 -119.66781 29391 ft 475 kts 171°
2026-05-07 01:54 35.53095 -119.66271 29263 ft 476 kts 172°
2026-05-07 01:55 35.49804 -119.65804 29128 ft 475 kts 172°
2026-05-07 01:55 35.46576 -119.65330 28820 ft 459 kts 169°
2026-05-07 01:55 35.43471 -119.64565 28175 ft 452 kts 165°
2026-05-07 01:55 35.40455 -119.63624 27576 ft 444 kts 163°
2026-05-07 01:56 35.37484 -119.62659 26997 ft 439 kts 163°
2026-05-07 01:56 35.34536 -119.61730 26429 ft 436 kts 164°
2026-05-07 01:56 35.31605 -119.60845 25856 ft 432 kts 165°
2026-05-07 01:56 35.28689 -119.59992 25314 ft 430 kts 165°
2026-05-07 01:57 35.25794 -119.59153 24752 ft 427 kts 165°
2026-05-07 01:57 35.22930 -119.58219 24166 ft 424 kts 156°
2026-05-07 01:57 35.20418 -119.56448 23775 ft 412 kts 140°
2026-05-07 01:57 35.18159 -119.54325 23311 ft 407 kts 139°
2026-05-07 01:58 35.15961 -119.52189 22894 ft 401 kts 138°
2026-05-07 01:58 35.13795 -119.50085 22484 ft 396 kts 139°
2026-05-07 01:58 35.11637 -119.48012 22103 ft 394 kts 139°
2026-05-07 01:58 35.09471 -119.45951 21734 ft 396 kts 139°
2026-05-07 01:59 35.07290 -119.43892 21358 ft 397 kts 139°
2026-05-07 01:59 35.05107 -119.41840 20972 ft 394 kts 139°
2026-05-07 01:59 35.02944 -119.39810 20602 ft 391 kts 139°
2026-05-07 01:59 35.00788 -119.37787 20224 ft 389 kts 139°
2026-05-07 02:00 34.98578 -119.35885 19764 ft 391 kts 146°
2026-05-07 02:00 34.96197 -119.34260 19280 ft 392 kts 149°
2026-05-07 02:00 34.93779 -119.32730 18749 ft 390 kts 149°
2026-05-07 02:00 34.91406 -119.31214 18235 ft 382 kts 149°
2026-05-07 02:01 34.89096 -119.29690 17705 ft 374 kts 148°
2026-05-07 02:01 34.86834 -119.28171 17190 ft 369 kts 148°
2026-05-07 02:01 34.84600 -119.26669 16914 ft 364 kts 148°
2026-05-07 02:01 34.82377 -119.25199 16641 ft 365 kts 148°
2026-05-07 02:02 34.80135 -119.23724 16286 ft 369 kts 148°
2026-05-07 02:02 34.77872 -119.22236 15885 ft 370 kts 148°
2026-05-07 02:02 34.75614 -119.20752 15467 ft 368 kts 148°
2026-05-07 02:02 34.73368 -119.19276 15064 ft 365 kts 148°
2026-05-07 02:03 34.71154 -119.17822 14646 ft 359 kts 148°
2026-05-07 02:03 34.68969 -119.16385 14248 ft 353 kts 148°
2026-05-07 02:03 34.66865 -119.14922 13817 ft 344 kts 144°
2026-05-07 02:03 34.64901 -119.13312 13327 ft 337 kts 142°
2026-05-07 02:04 34.62993 -119.11698 12877 ft 332 kts 142°
2026-05-07 02:04 34.61087 -119.10109 12439 ft 333 kts 143°
2026-05-07 02:04 34.59172 -119.08531 12000 ft 333 kts 143°
2026-05-07 02:04 34.57256 -119.06957 11566 ft 332 kts 143°
2026-05-07 02:05 34.55366 -119.05411 11139 ft 325 kts 144°
2026-05-07 02:05 34.53512 -119.03891 10823 ft 317 kts 144°
2026-05-07 02:05 34.51705 -119.02412 10489 ft 308 kts 144°
2026-05-07 02:05 34.49946 -119.00972 10234 ft 302 kts 144°
2026-05-07 02:06 34.48244 -118.99580 9940 ft 296 kts 144°
2026-05-07 02:06 34.46534 -118.98183 9629 ft 290 kts 144°
2026-05-07 02:06 34.44881 -118.96833 9335 ft 284 kts 144°
2026-05-07 02:06 34.43270 -118.95524 9070 ft 283 kts 144°
2026-05-07 02:07 34.41605 -118.94182 8820 ft 285 kts 144°
2026-05-07 02:07 34.38549 -118.91231 8261 ft 281 kts 120°
2026-05-07 02:07 34.37947 -118.89061 8204 ft 268 kts 91°
2026-05-07 02:08 34.38200 -118.86860 8218 ft 265 kts 71°
2026-05-07 02:08 34.38738 -118.84700 8211 ft 270 kts 71°
2026-05-07 02:08 34.39291 -118.82517 8210 ft 272 kts 71°
2026-05-07 02:08 34.39847 -118.80335 8170 ft 269 kts 71°
2026-05-07 02:09 34.40394 -118.78196 7861 ft 265 kts 70°
2026-05-07 02:09 34.40944 -118.76050 7381 ft 268 kts 71°
2026-05-07 02:09 34.41504 -118.73876 6998 ft 267 kts 71°
2026-05-07 02:09 34.42045 -118.71775 6734 ft 259 kts 71°
2026-05-07 02:10 34.42564 -118.69756 6619 ft 244 kts 71°
2026-05-07 02:10 34.43055 -118.67836 6526 ft 235 kts 70°
2026-05-07 02:10 34.43536 -118.65954 6229 ft 233 kts 70°
2026-05-07 02:10 34.44003 -118.64067 5857 ft 235 kts 69°
2026-05-07 02:11 34.44471 -118.62173 5561 ft 235 kts 71°
2026-05-07 02:11 34.44935 -118.60282 5255 ft 235 kts 70°
2026-05-07 02:11 34.45399 -118.58378 5050 ft 236 kts 71°
2026-05-07 02:11 34.45841 -118.56447 5024 ft 241 kts 79°
2026-05-07 02:12 34.45653 -118.54460 5003 ft 239 kts 112°
2026-05-07 02:12 34.44570 -118.52980 5025 ft 239 kts 149°
2026-05-07 02:12 34.43100 -118.52004 5037 ft 243 kts 152°
2026-05-07 02:12 34.41591 -118.51023 4933 ft 249 kts 156°
2026-05-07 02:13 34.39900 -118.50651 4712 ft 246 kts 180°
2026-05-07 02:13 34.38224 -118.50579 4459 ft 237 kts 178°
2026-05-07 02:13 34.36608 -118.50471 4155 ft 227 kts 178°
2026-05-07 02:13 34.35113 -118.50370 3893 ft 207 kts 176°
2026-05-07 02:14 34.33740 -118.50245 3655 ft 190 kts 176°
2026-05-07 02:14 34.32472 -118.50124 3379 ft 175 kts 176°
2026-05-07 02:14 34.31338 -118.50016 3114 ft 154 kts 176°
2026-05-07 02:14 34.30308 -118.49910 2814 ft 146 kts 176°
2026-05-07 02:15 34.29297 -118.49813 2563 ft 144 kts 176°
2026-05-07 02:15 34.28304 -118.49742 2378 ft 141 kts 176°
2026-05-07 02:15 34.27325 -118.49664 2154 ft 141 kts 174°
2026-05-07 02:15 34.26363 -118.49559 1930 ft 137 kts 174°
2026-05-07 02:16 34.25427 -118.49471 1728 ft 134 kts 174°
2026-05-07 02:16 34.24499 -118.49375 1525 ft 134 kts 175°
2026-05-07 02:16 34.23557 -118.49289 1319 ft 136 kts 174°
2026-05-07 02:16 34.22620 -118.49201 1074 ft 134 kts 173°
2026-05-07 02:17 34.21705 -118.49109 844 ft 129 kts 172°
2026-05-07 02:17 34.20877 -118.49030 810 ft 99 kts 176°
2026-05-07 02:17 34.20450 -118.48990 810 ft 39 kts 176°
2026-05-07 02:17 34.20246 -118.48972 810 ft 24 kts 175°
2026-05-07 02:18 34.20138 -118.48955 810 ft 11 kts 148°
2026-05-07 02:18 34.20121 -118.48881 810 ft 8 kts 94°
2026-05-07 02:18 34.20078 -118.48855 810 ft 9 kts 178°
2026-05-07 02:18 34.19989 -118.48855 810 ft 15 kts 180°
2026-05-07 02:19 34.19883 -118.48853 810 ft 15 kts 177°
2026-05-07 02:19 34.19787 -118.48843 810 ft 13 kts 175°
2026-05-07 02:19 34.19699 -118.48830 810 ft 12 kts 161°
2026-05-07 02:19 34.19618 -118.48819 810 ft 10 kts 181°
2026-05-07 02:20 34.19598 -118.48799 810 ft 3 kts 98°
2026-05-07 02:20 34.19611 -118.48785 810 ft 4 kts 12°
2026-05-07 02:20 34.19616 -118.48786 810 ft 0 kts 357°